Location: Brachbach
(49.1847°N, 9.7240°E)
Time: 02:38:10
(UTC+00:00)

ARIANE 6 FM1 Upper Stage - Pass Details

Date: 31 January 2026
Orbit: 522 x 609 km, 62.0° (Epoch: 13 February)

Event Time Altitude Azimuth Distance (km) Brightness Sun altitude
Rises 19:14:44 0° 297° (WNW) 2,677 7.2 -29.2°
Reaches altitude 10° 19:18:00 10° 326° (NW) 1,776 5.7 -29.7°
Enters shadow 19:18:49 12° 337° (NNW) 1,649 5.4 -29.9°
